User: anonymous   Login
Location: Pine Mountain Observatory
(43.7910°N, 120.9377°W)
Time: 02:28:56
(UTC-08:00)
Language:

Cosmos 1076 Rocket - Orbit

View from above orbital plane
View from above orbital plane
View from above satellite
View from above satellite

Ground track
Ground track

The orbit data is extracted from the following two-line orbital elements,

1 11267U 79011B   16342.21947382  .00000105  00000-0  85064-5 0  9991
2 11267  82.5265  50.7192 0017852 144.0668 216.1754 14.88807028 46904
Epoch (UTC): 07 December 2016 05:16:02
Eccentricity: 0.0017852
inclination: 82.5265°
perigee height: 589 km
apogee height: 614 km
right ascension of ascending node: 50.7192°
argument of perigee: 144.0668°
revolutions per day: 14.88807028
mean anomaly at epoch: 216.1754°
orbit number at epoch: 4690

The dashed part of the orbit path shows where the satellite is in the earth's shadow,  

DLR